Weather History for MWCR - November, 2011

Change the Weather History Date:

Wednesday, November 23, 2011

  Actual Average Record
Temperature  
Mean Temperature 80 °F -  
Max Temperature 86 °F 82 °F 87 °F (1997)
Min Temperature 75 °F 74 °F 69 °F (1999)
Cooling Degree Days 16    
Growing Degree Days 30 (Base 50)    
Moisture  
Dew Point 74 °F    
Average Humidity 78    
Maximum Humidity 94    
Minimum Humidity 63    
Precipitation  
Precipitation 0.00 in - - ()
Sea Level Pressure  
Sea Level Pressure 30.02 in    
Wind  
Wind Speed 7 mph ()    
Max Wind Speed 12 mph    
Max Gust Speed -    
Visibility 6.2 miles    
Events      
Averages and records for this station are not official NWS values.
T = Trace of Precipitation, MM = Missing Value Source: Averaged Metar Reports

Daily Weather History Graph

Daily Weather History Graph

Search for Another Location

Airport or City:

Trip Planner

Search our weather history database for the weather conditions in past years. The results will help you decide how hot, cold, wet, or windy it might be!

Date:

Astronomy

Nov. 23, 2011 Rise Set
Actual Time 6:37 AM EST 5:45 PM EST
Civil Twilight 6:14 AM EST 6:09 PM EST
Nautical Twilight 5:47 AM EST 6:35 PM EST
Astronomical Twilight 5:21 AM EST 7:02 PM EST
Moon 4:46 AM EST (11/23) 4:23 PM EST (11/23)
Length of Visible Light 11h 54m
Length of Day
11h 07m
Waning Crescent, 4% of the Moon is Illuminated
Nov 23
Waning Crescent
Nov 25
New
Dec 2
First Quarter
Dec 10
Full
Dec 17
Last Quarter

Hourly Weather History & Observations

Time (EST) Temp. Heat Index Dew Point Humidity Pressure Visibility Wind Dir Wind Speed Gust Speed Precip Events Conditions
6:00 AM 77.0 °F - 73.4 °F 89% 30.01 in 6.2 mi East 5.8 mph - N/A   Partly Cloudy
7:00 AM 76 °F - 73 °F 86% 30.02 in 6 mi East 4.6 mph - -   Scattered Clouds
7:00 AM 75.2 °F - 73.4 °F 94% 30.01 in 6.2 mi East 4.6 mph - N/A   Partly Cloudy
7:52 AM 80.6 °F 86.2 °F 75.2 °F 84% 30.04 in 6.2 mi East 8.1 mph - N/A   Partly Cloudy
8:59 AM 82.4 °F 89.5 °F 75.2 °F 79% 30.04 in 6.2 mi ENE 10.4 mph - N/A   Partly Cloudy
9:51 AM 84.2 °F 90.9 °F 73.4 °F 70% 30.06 in 6.2 mi East 11.5 mph - N/A   Partly Cloudy
10:55 AM 84.2 °F 92.3 °F 75.2 °F 74% 30.06 in 6.2 mi NE 9.2 mph - N/A   Partly Cloudy
11:51 AM 84.2 °F 92.3 °F 75.2 °F 74% 30.04 in 6.2 mi ENE 11.5 mph - N/A   Partly Cloudy
12:50 PM 84.2 °F 92.3 °F 75.2 °F 74% 30.01 in 6.2 mi NE 10.4 mph - N/A   Partly Cloudy
1:00 PM 85 °F - 74 °F 63% 30.02 in 6 mi NE 10.4 mph - -   Scattered Clouds
1:53 PM 84.2 °F 92.3 °F 75.2 °F 74% 29.98 in 6.2 mi NE 9.2 mph - N/A   Partly Cloudy
3:00 PM 86.0 °F 93.4 °F 73.4 °F 66% 29.98 in 6.2 mi NE 10.4 mph - N/A   Partly Cloudy
4:00 PM 86.0 °F 93.4 °F 73.4 °F 66% 29.98 in 6.2 mi ENE 9.2 mph - N/A   Partly Cloudy
5:00 PM 82.4 °F 89.5 °F 75.2 °F 79% 29.98 in 6.2 mi ENE 10.4 mph - N/A   Partly Cloudy
6:00 PM 80.6 °F 86.2 °F 75.2 °F 84% 29.98 in 6.2 mi ENE 8.1 mph - N/A   Partly Cloudy
7:00 PM 81 °F - 75 °F 76% 30.01 in 6 mi NE 9.2 mph - -   Scattered Clouds
7:00 PM 80.6 °F 86.2 °F 75.2 °F 84% 30.01 in 6.2 mi NE 9.2 mph - N/A   Partly Cloudy
8:00 PM 80.6 °F 86.2 °F 75.2 °F 84% 30.04 in 6.2 mi NE 9.2 mph - N/A   Partly Cloudy
9:00 PM 80.6 °F 85.4 °F 73.4 °F 79% 30.04 in 6.2 mi NE 9.2 mph - N/A   Partly Cloudy
10:00 PM 80.6 °F 86.2 °F 75.2 °F 84% 30.04 in 6.2 mi NE 9.2 mph - N/A   Partly Cloudy